Location: Izdebno
(52.6670°N, 16.2170°E)
Time: 10:14:23
(UTC+01:00)

Transit 2A - Pass Details

Date: 31 January 2023
Orbit: 591 x 964 km, 66.7° (Epoch: 21 March)

Event Time Altitude Azimuth Distance (km) Brightness Sun altitude
Rises 20:52:29 0° 277° (W) 3,160 10.1 -38.0°
Reaches altitude 10° 20:55:16 10° 293° (WNW) 2,307 9.2 -38.4°
Enters shadow 20:58:07 21° 324° (NW) 1,745 8.3 -38.8°
Maximum altitude 20:59:26 23° 345° (NNW) 1,693 - -39.0°
Drops below altitude 10° 21:03:55 10° 36° (NE) 2,510 - -39.6°
Sets 21:07:05 0° 50° (NE) 3,513 - -40.0°
